User: anonymous   Login
Location: Brno
(49.2000°N, 16.6330°E)
Time: 06:14:22
(UTC+02:00)
Language:

Meteor 1-4 Rocket - Orbit

View from above orbital plane
View from above orbital plane
View from above satellite
View from above satellite

Ground track
Ground track

The orbit data is extracted from the following two-line orbital elements,

1 04394U 70037B   15114.09497080  .00008596  00000-0  34276-3 0  9999
2 04394 081.2456 214.4041 0043593 278.1698 081.4592 15.24163561444992
Epoch (UTC): 24 April 2015 02:16:45
Eccentricity: 0.0043593
inclination: 81.2456°
perigee height: 463 km
apogee height: 523 km
right ascension of ascending node: 214.4041°
argument of perigee: 278.1698°
revolutions per day: 15.24163561
mean anomaly at epoch: 81.4592°
orbit number at epoch: 44499

The dashed part of the orbit path shows where the satellite is in the earth's shadow,  

DLR